Retour au catalogue

ZORKIY-2M

ActifMilitaireSSO
NORAD 57177·PAYLOAD·🇷🇺 Russia
Ce nom de satellite n'a pas encore été confirmé par des sources officielles.

Lancé Jun 27, 2023 depuis Vostochny Cosmodrome

Loading…

Prochains Passages (prochaines 24 heures)

TLE

FraisSource: Space-Track

Époque: Sep 14, 2026, 22:08 UTC

1 57177U 23091M   26257.92236430  .00006081  00000-0  26973-3 0  9998
2 57177  97.4995 316.6215 0013613 156.8451 203.3401 15.21881227177645

Suivez ZORKIY-2M en temps réel avec AllMySat

Download on the App Store